www.pogodaiklimat.ru

Архив погоды в Хабаровске (Хабаровский край, Россия)

Время
(UTC), дата
12 25.11
15 25.11
18 25.11
21 25.11
00 26.11
03 26.11
06 26.11
09 26.11
12 26.11
15 26.11
18 26.11
21 26.11
00 27.11
03 27.11
06 27.11
09 27.11
12 27.11
15 27.11
18 27.11
21 27.11
00 28.11
03 28.11
06 28.11
09 28.11
12 28.11
15 28.11
18 28.11
21 28.11
00 29.11
03 29.11
06 29.11
09 29.11
12 29.11
15 29.11
18 29.11
21 29.11
00 30.11
03 30.11
06 30.11
09 30.11
12 30.11
15 30.11
18 30.11
21 30.11
00 1.12
03 1.12
06 1.12
09 1.12
12 1.12
15 1.12
18 1.12
21 1.12
00 2.12
03 2.12
06 2.12
09 2.12
Ветер
(напр.,м/с)
Видим. Явления Облачность Т
(С)
Тd
(С)
f
(%)
Тe
(С)
Тes
(С)
Комфортность P
(гПа)
Po
(гПа)
Тmin
(С)
Tmax
(С)
R
(мм)
R24
(мм)
S
(см)
ЮЗ 3 10 км {снег} 10/0
[Ac trans Cs]
-11.6 -13.3 87 -18 -18 по сезону 1011.2 1002.2
З 2 10 км 9/0
[Ac trans]
-11.5 -13.2 87 -16 -16 по сезону 1011.6 1002.5
ЮЗ 5 10 км слаб. снег 10/3 1200 м
[Sc As op]
-9.5 -11.9 83 -17 -17 по сезону 1011.6 1002.6
З 3 10 км в посл. час снег 10/4 1200 м
[Sc As op]
-8.8 -11.4 81 -15 -15 по сезону 1012.7 1003.7 -13.4 0.2
ЮЗ 4 10 км слаб. снег 10/8 1140 м
[Sc As op]
-9.0 -11.0 85 -16 -16 по сезону 1014.5 1005.5
З 3 6000 м слаб. ливневой снег 10/8 720 м
[Cb cap As trans]
-8.1 -10.4 83 -14 -14 по сезону 1016.3 1007.4
З 3 3200 м слаб. ливневой снег 10/8 1080 м
[Cb cap As op]
-7.2 -8.9 88 -13 -13 по сезону 1018.2 1009.3
З 2 10 км в посл. час снег {ливн. снег} 10/0
[Ac trans Cs]
-8.1 -9.2 92 -13 -13 по сезону 1020.4 1011.4 -6.9 2
З 2 7000 м дымка {ливн. снег, снег} 9/0
[Ac trans Ci fib]
-9.5 -10.4 93 -14 -14 по сезону 1021.9 1012.8
Ю 2 100 м туман ?/? -12.4 -13.7 90 -17 -17 по сезону 1023.4 1014.2
В 2 10 км дымка {туман} 3/0
[Ci fib]
-13.7 -15.3 88 -18 -18 по сезону 1024.9 1015.7
Ю 1 10 км {туман} 4/0
[Ci fib]
-14.3 -15.9 88 -17 -17 по сезону 1026.1 1016.9 -15.2
ЮЗ 3 10 км 3/0
[Ci fib]
-11.6 -13.0 89 -18 -17 по сезону 1027.3 1018.1
ЮЗ 6 10 км ясно -7.0 -10.6 75 -15 -14 по сезону 1026.6 1017.7
ЮЗ 7-10
{11}
10 км ясно -6.8 -10.8 73 -15 -15 по сезону 1027.4 1018.3
ЮЗ 7
{10}
10 км {метель} ясно -7.9 -12.2 71 -17 -17 по сезону 1028.7 1019.7 -6.1
ЮЗ 7-10
{11}
10 км ясно -8.4 -12.7 71 -17 -17 по сезону 1028.8 1019.7
Ю 4
{11}
10 км ясно -12.0 -14.7 80 -19 -19 по сезону 1029.5 1020.4
Ю 3 10 км ясно -13.7 -15.1 89 -20 -20 по сезону 1029.8 1020.5
Ю 2 10 км 3/0
[Ci fib]
-13.5 -15.4 86 -18 -18 по сезону 1029.5 1020.2 -15.2
ЮВ 2 8000 м дымка 8/0
[Ac trans Ci fib]
-12.6 -14.6 85 -17 -17 по сезону 1029.1 1019.9 -15.5
Ю 1 10 км 4/0
[Ci fib]
-4.7 -11.6 58 -7 -4 тепло 1026.6 1017.6
Ю 4 10 км 9/9 1140 м
[Cb cap]
-3.9 -10.4 61 -10 -10 по сезону 1023.8 1014.9
Ю 4 10 км 9/8 930 м
[Cb cap Ci fib]
-4.5 -8.8 72 -11 -11 по сезону 1022.3 1013.4 -3.4
Ю 2 10 км 10/10 930 м
[Cb cap]
-3.7 -8.2 71 -8 -8 по сезону 1020.8 1011.9
ЮЗ 4 10 км 10/10 840 м
[Cb cap]
-3.5 -8.3 69 -9 -9 по сезону 1019.7 1010.9
ЮЗ 3 2200 м слаб. ливневой снег 10/10 570 м
[Cb cap]
-4.8 -6.4 89 -10 -10 по сезону 1018.0 1009.1
З 3 5000 м слаб. ливневой снег 10/8 540 м
[Cb cap Ac As]
-5.2 -6.3 92 -11 -11 по сезону 1016.4 1007.6 -5.2 0.9
З 4 2100 м слаб. ливневой снег 10/10 1140 м
[Cb cap]
-5.2 -6.5 91 -12 -12 по сезону 1015.8 1007.0
З 5 7000 м слаб. ливневой снег 9/4 720 м
[Cb cap Ac trans]
-6.1 -8.6 82 -13 -13 по сезону 1016.6 1007.8
З 5 10 км {ливн. снег, метель} 9/4 1000 м
[Cb cap Ac trans]
-6.1 -10.7 70 -13 -13 по сезону 1019.7 1010.8
З 1 10 км 8/3 450 м
[Sc Ac trans]
-12.0 -14.6 81 -14 -14 по сезону 1023.0 1013.9 -4.8 1
З 3 10 км 8/0
[Ac trans Ci fib]
-12.6 -15.8 77 -19 -19 холодно 1024.0 1014.7
Ю 4 10 км 9/0
[Ac trans]
-14.9 -16.9 85 -23 -23 очень
холодно
1023.7 1014.5
Ю 2 10 км 9/0
[Ac trans]
-14.3 -17.3 78 -19 -19 прохладно 1023.2 1013.9
З 1 10 км 9/0
[Ac trans Ci fib]
-14.6 -17.4 79 -17 -17 прохладно 1022.6 1013.4 -16.9
штиль 0 10 км 9/0
[Ac trans Ci fib]
-15.8 -17.8 85 -16 -15 по сезону 1022.3 1013.0 -17.8
штиль 0 10 км 9/0
[Ac trans Ci fib]
-12.9 -18.0 66 -13 -11 по сезону 1020.1 1010.9
штиль 0 10 км 10/0
[Ac trans Cs]
-11.8 -18.0 60 -12 -11 по сезону 1018.4 1009.3
С 1 10 км 10/3 600 м
[Sc As op]
-12.4 -16.8 70 -15 -15 по сезону 1016.4 1007.3 -10.5
СВ 1 10 км 10/3 1000 м
[Sc As op]
-12.9 -16.5 74 -15 -15 по сезону 1014.2 1005.1
С 4 2100 м слаб. снег 10/5 600 м
[Sc As op]
-13.9 -16.6 80 -21 -21 по сезону 1010.5 1001.4
С 8
{10}
1600 м ливневой снег 10/0 -13.0 -15.0 85 -23 -23 по сезону 1005.5 996.5
С 8-14
{14}
900 м ливневой снег {метель} 10/10 360 м
[Cb cap]
-10.4 -12.2 87 -20 -20 по сезону 1001.1 992.2 -14.1 1
С 6-11
{20}
1000 м ливневой снег {метель} 10/10 300 м
[Cb cap]
-10.2 -12.1 86 -19 -19 по сезону 999.2 990.3
С 6-13
{14}
900 м ливневой снег {метель} 10/10 360 м
[Cb cap]
-10.4 -12.3 86 -19 -19 по сезону 996.8 987.9
СЗ 5
{14}
900 м ливневой снег {метель} 10/10 240 м
[Cb cap]
-9.5 -11.2 87 -17 -17 по сезону 996.5 987.6
З 5 2600 м слаб. ливневой снег {метель} 10/10 240 м
[Cb cap]
-10.5 -12.2 87 -18 -18 по сезону 995.9 987.1 -9.3 5
З 5 1900 м ливневой снег 10/10 720 м
[Cb cap]
-10.3 -12.1 87 -18 -18 по сезону 995.3 986.5
З 6 10 км слаб. ливневой снег 10/6 1140 м
[Cb cap As op]
-11.3 -13.6 83 -20 -20 по сезону 995.5 986.6
З 7 10 км позёмок {ливн. снег, метель} 10/4 1000 м
[Cb cap As op]
-13.2 -17.1 72 -23 -23 по сезону 997.0 988.1
З 8
{10}
10 км позёмок {метель} 10/0
[As op]
-15.5 -19.7 70 -27 -27 прохладно 998.6 989.6 -15.5 2
ЮЗ 8-11
{12}
10 км позёмок {метель} 9/0
[Ac trans]
-15.5 -21.8 58 -27 -27 прохладно 1000.7 991.6 -16.3
ЮЗ 7-10
{12}
10 км позёмок {метель} 9/0
[Ac trans Ci fib]
-13.3 -21.2 51 -23 -23 по сезону 1000.4 991.4
ЮЗ 7-10
{14}
10 км позёмок {метель} 10/4 930 м
[Cb cap Ac As]
-11.2 -15.5 70 -20 -20 по сезону 1000.2 991.3
ЮЗ 3
{10}
7000 м слаб. ливневой снег {метель} 9/5 700 м
[Cb cap Ac trans]
-11.5 -14.1 81 -17 -17 по сезону 1000.6 991.6 -11.0 0.0
Местоположение метеостанции Хабаровск (Хабаровский край, Россия): широта 48.53 долгота 135.18 высота над уровнем моря 76 м.
В архиве по умолчанию представлена погода в Хабаровске за последнюю неделю. Архивные данные за месяц целиком и за предыдущие месяцы, начиная с января 2011 года, Вы можете получить, выбрав интересующий диапазон дат из раскрывающегося списка и нажав кнопку "Найти!".
*Определитесь, кто Вы:
Внимание! Время в таблицах - всемирное. Для получения местного времени необходимо прибавить поправку, которая равна 10 ч.
Смотрите также архив погоды в соседних городах и на ближайших метеорологических станциях:
Партнеры нашего сайта:      
Пояснения к столбцам:
  • Ветер - указаны скорость ветра в м/с - средняя за 10 мин, порывы в срок и между сроками (в фигурных скобках) и направление, откуда дует ветер: С - северный,
  • СВ - северо-восточный, В - восточный, ЮВ - юго-восточный, Ю - южный, ЮЗ - юго-западный, З - западный, СЗ - северо-западный.
  • Видимость - горизонтальная дальность видимости в метрах или километрах. При видимости от 1 до 10 км при отсутствии осадков обычно наблюдается дымка, при ухудшении видимости до 1 км и менее - туман. В сухую погоду видимость может ухудшаться дымом, пылью или мглою.
  • Явления - указаны атмосферные явления, наблюдавшиеся в срок или в последний час перед сроком; фигурными скобками обозначены явления, наблюдавшиеся между сроками (за 1-3 часа до срока); квадратными скобками обозначены град или гололедные отложения с указанием их диаметра в мм.
  • Облачность - указаны через наклонную черту общая и нижняя облачность в баллах и высота нижней границы облаков в метрах; квадратными скобками обозначены формы облаков: Ci - перистые, Cs - перисто-слоистые, Cc - перисто-кучевые, Ac - высококучевые, As - высокослоистые, Sc - слоисто-кучевые, Ns - слоисто-дождевые, Cu - кучевые, Cb - кучево-дождевые. Подробнее классификацию облаков см. в Атласе облаков (PDF).
  • T - Температура воздуха - температура, измеренная на высоте 2 м над землей.
  • Td - Температура точки росы - температура, при понижении до которой содержащийся в воздухе водяной пар достигнет насыщения.
  • f - Относительная влажность воздуха - влажноcть воздуха, измеренная на высоте 2 м над землей.
  • Te - Эффективная температура - температура, которую ощущает одетый по сезону человек в тени. Характеристика душности погоды. При расчете учитывается влияние влажности воздуха и скорости ветра на теплоощущения человека.
  • Tes - Эффективная температура на солнце - температура, которую ощущает человек, с поправкой на солнечный нагрев. Характеристика знойности погоды. Зависит от высоты солнца над горизонтом, облачности и скорости ветра. Ночью, в пасмурную погоду, а также при ветре 12 м/с и более поправка равна нулю.
  • P - Атмосферное давление - приведенное к уровню моря атмосферное давление.
  • Po - Атмосферное давление - измеренное на уровне метеостанции атмосферное давление.
  • Tmin - Минимальная температура - минимум температуры воздуха на высоте 2 м над землей.
  • Tmax - Максимальная температура - максимум температуры воздуха на высоте 2 м над землей.
  • R - Количество осадков - Количество выпавших осадков за период времени, мм. При наведении курсора мыши на число - период времени, за который выпало указанное количество осадков.
  • R24 - Количество осадков - Количество выпавших осадков за 24 часа, мм.
  • S - Снежный покров - Высота снежного покрова, см. При наведении курсора мыши на число - состояние снежного покрова и степень покрытия местности в баллах.